• In Uzbekistan
  • List of Countries
  • For 7 days
  • Water Temperature
  • Satellite Maps
  • Weather Map
  • Weather Widgets
  • user-avatar
    Login

    Hourly Weather Nasiczne

    Today, 25 September, Tuesday

    Time Temperature Precipitation Wind Pressure Humidity
    00:00 +3°C° 0 mm 4 mps 711 mmHg 81%
    01:00 +3°C° 0 mm 4 mps 711 mmHg 82%
    02:00 +2°C° 0 mm 3 mps 712 mmHg 87%
    03:00 +2°C° 0.1 mm 3 mps 712 mmHg 87%
    04:00 +2°C° 0.1 mm 3 mps 712 mmHg 86%
    05:00 +2°C° 0.1 mm 3 mps 713 mmHg 86%
    06:00 +1°C° 0 mm 4 mps 713 mmHg 84%
    07:00 +1°C° 0 mm 4 mps 714 mmHg 83%
    08:00 +1°C° 0 mm 4 mps 714 mmHg 81%
    09:00 +2°C° 0 mm 5 mps 715 mmHg 76%
    10:00 +3°C° 0 mm 5 mps 715 mmHg 71%
    11:00 +6°C° 0 mm 5 mps 716 mmHg 66%
    12:00 +6°C° 0.2 mm 5 mps 716 mmHg 62%
    13:00 +7°C° 0.2 mm 5 mps 716 mmHg 59%
    14:00 +8°C° 0.2 mm 5 mps 717 mmHg 56%
    15:00 +7°C° 0.1 mm 5 mps 717 mmHg 57%
    16:00 +7°C° 0.1 mm 5 mps 717 mmHg 59%
    17:00 +7°C° 0.1 mm 4 mps 717 mmHg 60%
    18:00 +5°C° 0 mm 3 mps 717 mmHg 66%
    19:00 +3°C° 0 mm 3 mps 718 mmHg 73%
    20:00 +3°C° 0 mm 2 mps 718 mmHg 79%
    21:00 +2°C° 0 mm 2 mps 718 mmHg 79%
    22:00 +2°C° 0 mm 2 mps 719 mmHg 79%
    23:00 +2°C° 0 mm 2 mps 719 mmHg 80%

    Tomorrow, 26 September, Wednesday

    Time Temperature Precipitation Wind Pressure Humidity
    00:00 +1°C° 0 mm 2 mps 720 mmHg 81%
    01:00 +2°C° 0 mm 1 mps 720 mmHg 82%
    02:00 +2°C° 0 mm 1 mps 720 mmHg 83%
    03:00 +1°C° 0 mm 1 mps 720 mmHg 84%
    04:00 +1°C° 0 mm 1 mps 720 mmHg 86%
    05:00 +1°C° 0 mm 1 mps 720 mmHg 87%
    06:00 +2°C° 0 mm 1 mps 721 mmHg 83%
    07:00 +3°C° 0 mm 1 mps 721 mmHg 78%
    08:00 +4°C° 0 mm 1 mps 722 mmHg 73%
    09:00 +6°C° 0 mm 1 mps 722 mmHg 64%
    10:00 +7°C° 0 mm 2 mps 722 mmHg 54%
    11:00 +9°C° 0 mm 2 mps 722 mmHg 45%
    12:00 +10°C° 0 mm 2 mps 722 mmHg 42%
    13:00 +12°C° 0 mm 2 mps 721 mmHg 40%
    14:00 +12°C° 0 mm 1 mps 721 mmHg 38%
    15:00 +12°C° 0 mm 1 mps 720 mmHg 42%
    16:00 +12°C° 0 mm 1 mps 720 mmHg 47%
    17:00 +11°C° 0 mm 1 mps 719 mmHg 51%
    18:00 +9°C° 0 mm 1 mps 719 mmHg 54%
    19:00 +8°C° 0 mm 1 mps 719 mmHg 58%
    20:00 +6°C° 0 mm 1 mps 719 mmHg 61%
    21:00 +5°C° 0 mm 2 mps 719 mmHg 60%
    22:00 +6°C° 0 mm 2 mps 719 mmHg 59%
    23:00 +6°C° 0 mm 2 mps 719 mmHg 58%

    Day after tomorrow, 27 September, Thursday

    Time Temperature Precipitation Wind Pressure Humidity
    00:00 +5°C° 0 mm 3 mps 719 mmHg 60%
    01:00 +5°C° 0 mm 3 mps 718 mmHg 61%
    02:00 +4°C° 0 mm 3 mps 718 mmHg 63%
    03:00 +4°C° 0 mm 3 mps 718 mmHg 62%
    04:00 +4°C° 0 mm 3 mps 717 mmHg 62%
    05:00 +4°C° 0 mm 3 mps 717 mmHg 61%
    06:00 +4°C° 0 mm 3 mps 717 mmHg 59%
    07:00 +5°C° 0 mm 3 mps 717 mmHg 58%
    08:00 +5°C° 0 mm 3 mps 717 mmHg 56%
    09:00 +7°C° 0 mm 3 mps 717 mmHg 55%
    10:00 +8°C° 0 mm 3 mps 717 mmHg 53%
    11:00 +8°C° 0 mm 3 mps 717 mmHg 52%
    12:00 +9°C° 0 mm 3 mps 716 mmHg 51%
    13:00 +10°C° 0 mm 3 mps 716 mmHg 51%
    14:00 +11°C° 0 mm 3 mps 716 mmHg 50%
    15:00 +11°C° 0 mm 3 mps 716 mmHg 52%
    16:00 +11°C° 0 mm 3 mps 716 mmHg 53%
    17:00 +11°C° 0 mm 3 mps 715 mmHg 54%
    18:00 +10°C° 0 mm 2 mps 715 mmHg 58%
    19:00 +8°C° 0 mm 2 mps 715 mmHg 61%
    20:00 +7°C° 0 mm 2 mps 715 mmHg 64%
    21:00 +6°C° 0 mm 2 mps 715 mmHg 64%
    22:00 +6°C° 0 mm 2 mps 715 mmHg 64%
    23:00 +6°C° 0 mm 2 mps 715 mmHg 64%

    28 September, Friday

    Time Temperature Precipitation Wind Pressure Humidity
    00:00 +6°C° 0 mm 2 mps 714 mmHg 64%
    01:00 +6°C° 0 mm 2 mps 714 mmHg 65%
    02:00 +6°C° 0 mm 2 mps 714 mmHg 65%
    03:00 +6°C° 0 mm 2 mps 713 mmHg 66%
    04:00 +6°C° 0 mm 2 mps 713 mmHg 66%
    05:00 +6°C° 0 mm 2 mps 712 mmHg 67%
    06:00 +7°C° 0 mm 2 mps 712 mmHg 65%
    07:00 +8°C° 0 mm 2 mps 712 mmHg 64%
    08:00 +8°C° 0 mm 2 mps 712 mmHg 62%
    09:00 +10°C° 0 mm 3 mps 712 mmHg 56%
    10:00 +12°C° 0 mm 3 mps 712 mmHg 51%
    11:00 +14°C° 0 mm 4 mps 712 mmHg 45%
    12:00 +15°C° 0 mm 4 mps 711 mmHg 44%
    13:00 +17°C° 0 mm 4 mps 711 mmHg 43%
    14:00 +18°C° 0 mm 4 mps 710 mmHg 43%
    15:00 +17°C° 0 mm 3 mps 710 mmHg 47%
    16:00 +17°C° 0 mm 3 mps 709 mmHg 51%
    17:00 +16°C° 0 mm 2 mps 709 mmHg 55%
    18:00 +14°C° 0 mm 2 mps 709 mmHg 59%
    19:00 +12°C° 0 mm 2 mps 708 mmHg 63%
    20:00 +9°C° 0 mm 2 mps 708 mmHg 67%
    21:00 +9°C° 0 mm 2 mps 708 mmHg 66%
    22:00 +10°C° 0 mm 1 mps 708 mmHg 66%
    23:00 +10°C° 0 mm 1 mps 708 mmHg 65%

    29 September, Saturday

    Time Temperature Precipitation Wind Pressure Humidity
    00:00 +10°C° 0 mm 1 mps 708 mmHg 67%
    01:00 +9°C° 0 mm 1 mps 708 mmHg 69%
    02:00 +9°C° 0 mm 1 mps 708 mmHg 71%
    03:00 +8°C° 0 mm 1 mps 708 mmHg 75%
    04:00 +8°C° 0 mm 1 mps 708 mmHg 78%
    05:00 +7°C° 0 mm 1 mps 708 mmHg 81%
    06:00 +7°C° 0 mm 2 mps 708 mmHg 82%
    07:00 +8°C° 0 mm 2 mps 708 mmHg 83%
    08:00 +9°C° 0 mm 2 mps 709 mmHg 84%
    09:00 +9°C° 0.1 mm 3 mps 709 mmHg 82%
    10:00 +10°C° 0.1 mm 3 mps 709 mmHg 80%
    11:00 +11°C° 0.1 mm 4 mps 710 mmHg 78%
    12:00 +11°C° 0.1 mm 4 mps 710 mmHg 77%
    13:00 +11°C° 0.1 mm 4 mps 710 mmHg 75%
    14:00 +11°C° 0.1 mm 4 mps 710 mmHg 74%
    15:00 +10°C° 0 mm 4 mps 710 mmHg 73%
    16:00 +10°C° 0 mm 4 mps 710 mmHg 73%
    17:00 +10°C° 0 mm 4 mps 710 mmHg 72%
    18:00 +9°C° 0 mm 3 mps 710 mmHg 77%
    19:00 +7°C° 0 mm 3 mps 711 mmHg 83%
    20:00 +5°C° 0 mm 3 mps 711 mmHg 88%
    21:00 +5°C° 0 mm 3 mps 711 mmHg 88%
    22:00 +5°C° 0 mm 3 mps 711 mmHg 89%
    23:00 +5°C° 0 mm 3 mps 711 mmHg 89%

    30 September, Sunday

    Time Temperature Precipitation Wind Pressure Humidity
    00:00 +5°C° 0 mm 3 mps 712 mmHg 89%
    01:00 +5°C° 0 mm 3 mps 712 mmHg 89%
    02:00 +5°C° 0 mm 3 mps 712 mmHg 89%
    03:00 +5°C° 0 mm 2 mps 712 mmHg 90%
    04:00 +5°C° 0 mm 2 mps 712 mmHg 90%
    05:00 +5°C° 0 mm 2 mps 712 mmHg 91%
    06:00 +5°C° 0 mm 2 mps 712 mmHg 89%
    07:00 +6°C° 0 mm 2 mps 712 mmHg 88%
    08:00 +6°C° 0 mm 2 mps 712 mmHg 87%
    09:00 +7°C° 0 mm 2 mps 712 mmHg 83%
    10:00 +8°C° 0 mm 2 mps 712 mmHg 80%
    11:00 +10°C° 0 mm 2 mps 712 mmHg 76%
    12:00 +12°C° 0 mm 2 mps 712 mmHg 73%
    13:00 +13°C° 0 mm 2 mps 712 mmHg 70%
    14:00 +14°C° 0 mm 2 mps 711 mmHg 67%
    15:00 +14°C° 0 mm 2 mps 711 mmHg 69%
    16:00 +14°C° 0 mm 1 mps 711 mmHg 70%
    17:00 +14°C° 0 mm 1 mps 710 mmHg 72%
    18:00 +12°C° 0 mm 1 mps 710 mmHg 78%
    19:00 +10°C° 0 mm 1 mps 710 mmHg 84%
    20:00 +9°C° 0 mm 1 mps 710 mmHg 90%
    21:00 +8°C° 0 mm 1 mps 710 mmHg 91%
    22:00 +8°C° 0 mm 1 mps 709 mmHg 91%
    23:00 +8°C° 0 mm 1 mps 709 mmHg 92%
    Show more